This is the latest recevied weather packets stored in our database for station/object KC5DP. If no packets are shown the sender has not sent any weather packets the latest 10 day(s).
| Time | Temp. | Humidity | Pressure | Rain* | Wind** | Luminosity | Snow |
|---|---|---|---|---|---|---|---|
| 1777678202 | 12.22° C | 99% | 1011 hPa | 1.27 mm | - | 6 W/m² | - |
| 1777677899 | 12.22° C | 99% | 1010.7 hPa | 1.27 mm | - | 7 W/m² | - |
| 1777677596 | 12.78° C | 99% | 1010.9 hPa | 4.83 mm | - | 11 W/m² | - |
| 1777677295 | 12.78° C | 99% | 1010.9 hPa | 4.83 mm | - | 13 W/m² | - |
| 1777676992 | 12.78° C | 99% | 1011.8 hPa | 7.87 mm | - | 7 W/m² | - |
| 1777676691 | 12.78° C | 99% | 1011.8 hPa | 7.87 mm | - | 7 W/m² | - |
| 1777676388 | 12.78° C | 99% | 1011.6 hPa | 7.87 mm | - | 11 W/m² | - |
| 1777676086 | 12.78° C | 99% | 1011.6 hPa | 4.32 mm | - | 11 W/m² | - |
| 1777675781 | 12.78° C | 99% | 1011.7 hPa | 3.05 mm | - | 12 W/m² | - |
| 1777675479 | 12.78° C | 99% | 1011.6 hPa | 4.83 mm | - | 11 W/m² | - |
| 1777675176 | 12.78° C | 99% | 1011.5 hPa | 4.83 mm | - | 9 W/m² | - |
| 1777674872 | 12.78° C | 99% | 1011.5 hPa | 6.1 mm | - | 15 W/m² | - |
| 1777674568 | 12.78° C | 98% | 1011.5 hPa | 3.05 mm | - | 19 W/m² | - |
| 1777674266 | 12.22° C | 98% | 1011.8 hPa | 1.27 mm | - | 15 W/m² | - |
| 1777673962 | 12.78° C | 98% | 1011.9 hPa | 3.05 mm | - | 21 W/m² | - |
| 1777673659 | 12.22° C | 98% | 1011.5 hPa | 1.78 mm | - | 29 W/m² | - |
| 1777673357 | 12.22° C | 98% | 1011.1 hPa | 1.78 mm | - | 37 W/m² | - |
| 1777673054 | 12.22° C | 98% | 1011.1 hPa | 1.78 mm | - | 45 W/m² | - |
| 1777672750 | 12.22° C | 98% | 1011.3 hPa | 3.05 mm | - | 37 W/m² | - |
| 1777672447 | 12.22° C | 99% | 1011.3 hPa | 4.32 mm | - | 49 W/m² | - |
| 1777672142 | 12.22° C | 99% | 1011.6 hPa | 4.83 mm | - | 44 W/m² | - |
| 1777671837 | 12.22° C | 99% | 1011.8 hPa | 3.05 mm | - | 45 W/m² | - |
| 1777671533 | 12.22° C | 99% | 1011.4 hPa | 4.32 mm | - | 40 W/m² | - |
| 1777671230 | 12.22° C | 99% | 1010.6 hPa | 7.87 mm | - | 39 W/m² | - |
| 1777670926 | 12.78° C | 99% | 1010.2 hPa | 13.72 mm | - | 39 W/m² | - |
* Rain latest hour (hover to see other rain measurements)
** Current wind speed in m/s (hover to see current wind gust speed)